Location: Napa Soda Springs
(38.3907°N, 122.2794°W)
Time: 07:16:11
(UTC+00:00)

Cosmos 2082 Rocket - Pass Details

Date: 29 October 2020
Orbit: 833 x 854 km, 71.0° (Epoch: 02 December)

Event Time Altitude Azimuth Distance (km) Brightness Sun altitude
Exits shadow 12:09:32 51° 167° (SSE) 1,040 2.6 -28.6°
Maximum altitude 12:10:49 67° 109° (ESE) 899 2.4 -28.4°
Drops below altitude 10° 12:16:22 10° 28° (NNE) 2,450 5.0 -27.3°
Sets 12:18:50 0° 26° (NNE) 3,389 5.7 -26.8°
